Location: *
(40.7873°S, 98.7174°E)
Time: 07:36:35
(UTC+00:00)

OAO 2 Rocket - Visible Passes

Search period start: 06 October 2022 00:00
Search period end: 16 October 2022 00:00
Orbit: 676 x 744 km, 35.0° (Epoch: 06 October)

Date Brightness Start Highest point End Pass type
(mag) Time Alt. Az. Time Alt. Az. Time Alt. Az.
06 Oct 4.5 21:20:08 22° NNW 21:22:32 32° NNE 21:27:16 10° E visible
07 Oct 4.8 20:25:04 25° NNE 20:25:04 25° NNE 20:28:54 10° ENE visible
07 Oct 4.1 22:03:59 11° WNW 22:08:47 44° N 22:13:51 10° ENE visible
08 Oct 6.0 19:29:59 11° ENE 19:29:59 11° ENE 19:30:19 10° ENE visible
08 Oct 4.1 21:08:54 30° NNW 21:10:43 39° N 21:15:40 10° ENE visible
09 Oct 4.6 20:13:48 30° NE 20:13:48 30° NE 20:17:24 10° E visible
09 Oct 4.0 21:52:43 14° WNW 21:57:01 45° N 22:02:05 10° ENE visible
10 Oct 6.0 19:18:42 11° ENE 19:18:42 11° ENE 19:19:03 10° ENE visible
10 Oct 3.9 20:57:37 37° NNW 20:58:55 44° N 21:03:57 10° ENE visible
11 Oct 4.6 20:02:32 31° NE 20:02:32 31° NE 20:05:46 10° ENE visible
11 Oct 4.0 21:41:28 16° WNW 21:45:14 43° N 21:50:14 10° ENE visible
12 Oct 6.1 19:07:30 10° ENE 19:07:30 10° ENE 19:07:31 10° ENE visible
12 Oct 3.7 20:46:25 42° NNW 20:47:08 45° N 20:52:10 10° ENE visible
13 Oct 4.9 19:51:25 27° ENE 19:51:25 27° ENE 19:54:01 10° ENE visible
13 Oct 4.1 21:30:21 19° WNW 21:33:25 36° NNW 21:38:14 10° NE visible
14 Oct 3.9 20:35:26 41° N 20:35:26 41° N 20:40:16 10° ENE visible
15 Oct 5.3 19:40:35 19° ENE 19:40:35 19° ENE 19:42:13 10° ENE visible
15 Oct 4.4 21:19:32 22° NW 21:21:32 29° NNW 21:26:01 10° NE visible
